Location: Albany
(35.0000°S, 118.0000°E)
Time: 07:27:00
(UTC-04:00)

JAS-1B - Visible Passes

Search period start: 27 July 2016 00:00
Search period end: 06 August 2016 00:00
Orbit: 911 x 1744 km, 99.0° (Epoch: 27 July)

Date Brightness Start Highest point End Pass type
(mag) Time Alt. Az. Time Alt. Az. Time Alt. Az.
27 Jul 9.4 06:42:37 10° NNW 06:51:29 43° W 07:00:49 10° SSW visible
27 Jul 10.5 16:47:23 10° ESE 16:50:12 12° E 16:52:50 10° ENE visible
27 Jul 7.6 18:33:58 10° SSE 18:42:14 89° ENE 18:48:58 10° NNW visible
28 Jul 9.9 07:02:32 10° NNW 07:10:46 32° W 07:19:23 10° SSW visible
28 Jul 10.1 17:04:36 10° SE 17:09:40 18° E 17:14:11 10° NE visible
29 Jul 10.3 07:22:51 10° NW 07:30:08 24° W 07:37:40 10° SW visible
29 Jul 9.6 17:22:44 10° SE 17:29:02 26° E 17:34:30 10° NE visible
30 Jul 8.4 05:48:20 10° NNE 05:58:04 83° WNW 06:08:03 10° SSW visible
30 Jul 10.6 07:43:48 10° NW 07:49:33 17° W 07:55:27 10° SW visible
30 Jul 9.0 17:41:14 10° SSE 17:48:21 37° E 17:54:20 10° NNE visible
31 Jul 8.8 06:07:32 10° N 06:17:10 65° W 06:27:01 10° SSW visible
31 Jul 10.9 08:06:22 10° W 08:09:03 11° W 08:11:45 10° WSW visible
31 Jul 8.3 17:59:58 10° SSE 18:07:33 52° E 18:13:49 10° N visible
01 Aug 9.2 06:26:59 10° N 06:36:20 50° W 06:45:52 10° SSW visible
01 Aug 7.7 18:18:54 10° SSE 18:26:40 74° ENE 18:33:04 10° N visible
02 Aug 9.7 06:46:43 10° NNW 06:55:34 38° W 07:04:33 10° SSW visible
02 Aug 10.3 16:50:43 10° ESE 16:53:50 13° E 16:56:45 10° ENE visible
03 Aug 10.1 07:06:48 10° NNW 07:14:51 29° W 07:23:00 10° SW visible
03 Aug 9.9 17:08:12 10° SE 17:13:15 20° E 17:17:45 10° NE visible
04 Aug 10.5 07:27:22 10° NW 07:34:12 21° W 07:41:06 10° SW visible
04 Aug 9.4 17:26:27 10° SE 17:32:35 28° E 17:37:55 10° NNE visible
05 Aug 8.6 05:52:14 10° N 06:02:07 75° WNW 06:11:51 10° SSW visible
05 Aug 10.8 07:48:47 10° WNW 07:53:38 15° W 07:58:29 10° WSW visible
05 Aug 8.7 17:45:01 10° SSE 17:51:50 41° E 17:57:38 10° NNE visible
